Время (UTC), дата Ветер
(°,м/с) 
Видим.   Явления Облачность Т
(°С)
Тd
(°С)
f(%) Тe
(°С)
Pmin
(гПа)
dP
(гПа)
Po
(мм)
O2
(г/м3)
Тmin Tmax R s Состояние
почвы
00 05.12.13 тихо ()   10 км    5/0 средняя, верхняя 
[Ac trans|Ci fib]
-2.5 -3.6 92 -3  1020.3  -1.8  762  310           
03 05.12.13 060 (СВ) 10 км    ясно 
-1.5 -2.7 92 -1  1018.9  -1.3  761  309  -3.1         
06 05.12.13 тихо ()   10 км    3/0 верхняя 
[Ci]
+2.1 -0.5 83 +2  1018.2  -0.7  761  304           
09 05.12.13 250 (З) 10 км    4/0 средняя, верхняя 
[Ac trans|Ci fib]
+7.7 -0.2 57 +9  1016.6  -1.4  760  298           
12 05.12.13 210 (ЮЗ) 10 км    9/9 1000 м 
[Sc]
+8.2 -0.2 55 +8  1015.1  -1.5  759  297           
15 05.12.13 180 (Ю) 10 км    6/6 1000 м 
[Sc]
+8.2 -0.2 55 +8  1015.1  -1.4  758  296    +9.1       
18 05.12.13 190 (Ю) 10 км    10/10 1000 м кучево-дожд. 
[Cb cap]
+5.7 +2.1 78 +5  1013.2  -0.5  757  299           
21 05.12.13 270 (З) 10 км  слаб. ливневой дождь  10/10 300 м кучево-дожд. 
[Cb cap]
+6.1 +3.7 85 +5  1013.8  0.5  758  298           
00 06.12.13 270 (З) 10 км  в посл. час ливневой дождь  10/10 600 м кучево-дожд. 
[Cb cap]
+3.5 +0.7 82 +3  1015.6  1.8  759  302           
03 06.12.13 240 (ЮЗ) 10 км    9/9 600 м 
[Sc]
+2.9 -0.3 80 +4  1017  1.4  760  303  +2.8    0.3     
06 06.12.13 210 (ЮЗ) 10 км    6/6 300 м 
[St]
+2.7 -0 82 +3  1017.5  0.4  760  303  +1         
09 06.12.13 220 (ЮЗ) 10 км    6/3 1000 м верхняя 
[Cu hum|Ci]
+6.2 -0.1 64 +6  1016.4  -1  760  299           
12 06.12.13 210 (ЮЗ) 10 км    9/6 1000 м кучево-дожд., средняя, верхняя 
[Cb cap|Ac trans|Ci]
+8.2 -0.3 55 +8  1013.8  -2.6  758  296           
18 06.12.13 130 (ЮВ) 10 км    10/10 1000 м кучево-дожд. 
[Cb cap]
+6.6 +4 83 +8  1010.2  -1.9  755  296           
21 06.12.13 170 (Ю) 10 км  {ливн. осадки}  9/9 1000 м кучево-дожд. 
[Cb cap]
+6.8 +4.4 85 +7  1008.7  -1.5  754  296           
03 07.12.13 210 (ЮЗ) 4-11{12}  10 км  в посл. час ливневой дождь  8/8 1000 м 
[Sc]
+10.2 +3.2 62 +9  1006.4  -1.3  752  292  +4.2       
06 07.12.13 310 (СЗ) 2{11}  10 км  {ливн. осадки}  10/10 600 м кучево-дожд. 
[Cb cap]
+6.1 +3 80 +6  1008.4  1.9  754  297           
09 07.12.13 250 (З) 4000 м  слаб. ливневой дождь{гроза}  10/10 600 м кучево-дожд. 
[Cb cap]
+5.6 +4.3 91 +5  1008.1  -0.2  753  297           
12 07.12.13 тихо ()   4000 м  слаб. ливневой дождь{гроза}  10/10 300 м кучево-дожд. 
[Cb cap]
+6 +4.9 93 +6  1005.9  -2.2  752  296           
15 07.12.13 280 (З) 4000 м  слаб. ливневой дождь  10/10 300 м кучево-дожд. 
[Cb cap]
+5.6 +4.1 90 +5  1007.3  1.3  753  297    +10.3  14     
18 07.12.13 270 (З) 4000 м  слаб. ливневой дождь  10/10 300 м кучево-дожд. 
[Cb cap]
+3.4 +1.1 85 +3  1008.9  1.6  754  300           
21 07.12.13 210 (ЮЗ) 10 км  {ливн. осадки}  10/8 1000 м средняя 
[Sc|Ac und]
+2.7 +1.1 89 +3  1010.2  1.3  755  301           
00 08.12.13 200 (Ю) 10 км  {ливн. осадки}  10/8 600 м средняя 
[Sc|Ac und]
+2.6 +1.2 90 +3  1011.6  1.3  756  302           
03 08.12.13 240 (ЮЗ) 10 км    ясно 
+1.6 -1.1 82 +1  1012.6  1.1  757  303  +1.6       
06 08.12.13 230 (ЮЗ) 10 км    9/0 средняя, верхняя 
[Ac trans|Ci]
+1.6 -2.6 74 +1  1014.3  1.6  758  304  +0.9         
09 08.12.13 270 (З) 10 км    3/0 верхняя 
[Ci fib]
+4.4 -2.3 62 +3  1014.6  1.6  758  301           
12 08.12.13 260 (З) 10 км    8/3 1000 м кучево-дожд., средняя, верхняя 
[Cb cap|Ac trans|Ci]
+4 -2.5 62 +4  1014.5  -0.1  758  301           
15 08.12.13 260 (З) 10 км    9/3 1000 м средняя 
[Sc|Ac trans]
+2.7 -2 71 +2  1015.8  1.2  759  303    +5.2       
18 08.12.13 260 (З) 10 км    10/10 1000 м 
[Sc]
+1.8 -3 71 +1  1016.8  760  304           
21 08.12.13 240 (ЮЗ) 10 км    8/0 средняя 
[Sc|As trans]
+1 -3.1 74 1017.9  1.1  761  306           
00 09.12.13 240 (ЮЗ) 10 км    н/о 
+0.2 -4 73 -1  1018.8  0.8  761  307           
03 09.12.13 260 (З) 4000 м  слаб. ливневой снег  10/10 300 м кучево-дожд. 
[Cb cap]
+0.6 -1.5 86 1019.9  1.1  762  307  +0    0.1     
06 09.12.13 240 (ЮЗ) 4000 м  слаб. ливневой снег  8/6 300 м кучево-дожд., средняя 
[Cb cap|Ac trans]
+0.7 -1.6 85 1021.5  1.7  763  307           
09 09.12.13 250 (З) 10 км  {ливн. осадки}  8/4 1000 м кучево-дожд., верхняя 
[Cb cap|Ci fib]
+3 -2.6 67 +2  1021.2  -0.3  763  304           
12 09.12.13 260 (З) 4{10}  10 км    4/4 600 м кучево-дожд. 
[Cb cap]
+2.8 -5.6 54 +1  1020  -1.3  762  305           
18 09.12.13 170 (Ю) 10 км    10/8 600 м кучево-дожд., средняя 
[Cb cap|Ac und]
+2.2 -2.4 72 +2  1014.4  -4.2  758  303           
21 09.12.13 210 (ЮЗ) 4000 м  слаб. ливневой дождь  10/10 600 м кучево-дожд. 
[Cb cap]
+2.5 +0.5 87 +2  1010.8  -3.6  755  301           
00 10.12.13 190 (Ю) 5-10{15}  10 км  в посл. час ливневой дождь  10/10 300 м кучево-дожд. 
[Cb cap]
+3.7 +1.5 86 +1  1006.3  -4.4  752  299           
03 10.12.13 190 (Ю) 5-11{15}  4000 м  слаб. ливневой дождь  10/10 300 м кучево-дожд. 
[Cb cap]
+3.5 +1.6 87 +1  1002.3  -4  749  298  +1       
12 10.12.13 330 (СЗ) 4{11}  4000 м  слаб. ливневой снег  10/10 200 м кучево-дожд. 
[Cb cap]
-2 -5 80 -5  1012.7  6.1  757  308           
15 10.12.13 330 (СЗ) 2{11}  10 км  в посл. час ливневой снег  9/9 300 м кучево-дожд. 
[Cb cap]
-3 -6.4 77 -4  1018  5.2  761  311    +3.4  17     
18 10.12.13 340 (С) 10 км  {ливн. осадки}  10/10 300 м 
[St]
-3.7 -8.8 68 -5  1021.3  3.3  763  313           
21 10.12.13 320 (СЗ) 10 км    10/10 300 м 
[St]
-4.6 -9.3 70 -6  1023.4  765  314           
00 11.12.13 330 (СЗ) 10 км  слаб. снег  10/10 600 м 
[Sc]
-4.6 -9.2 70 -4  1024.1  0.7  765  315           
03 11.12.13 340 (С) 4000 м  слаб. снег  10/10 300 м 
[Sc]
-5 -8.1 79 -6  1024.8  0.7  766  315  -5    0.3  <0.5  равномерный
сухой снег
100% 
06 11.12.13 340 (С) 10 км  слаб. снег  9/8 600 м средняя 
[Sc|Ac trans]
-6.9 -11.9 67 -7  1026.6  1.7  767  318  -6.9         
09 11.12.13 330 (СЗ) 10 км  слаб. снег  6/4 1000 м верхняя 
[Sc|Ci fib]
-6.8 -12.7 63 -8  1027.3  0.7  767  318           
15 11.12.13 290 (З) 10 км  {ливн. осадки}  3/3 1000 м 
-7.6 -11.5 74 -7  1027.1  767  319    -5  0.5     
18 11.12.13 340 (С) 10 км    8/3 1000 м верхняя 
[Sc|Ci fib]
-8 -11.5 76 -8  1027.8  0.7  768  320           
21 11.12.13 270 (З) 10 км    9/8 1000 м средняя 
[Sc|Ac und]
-6.9 -1.4 100 -8  1028  0.3  768  318           
00 12.12.13 280 (З) 10 км    3/3 1000 м 
[Sc]
-7.4 -11.1 75 -9  1027.1  -0.9  767  319           
03 12.12.13 360 (С) 10 км    10/8 1000 м средняя 
[Sc|Ac und]
-7.8 -10.7 80 -8  1027.3  0.2  768  319  -8.2      <0.5  равномерный
сухой снег
100% 
06 12.12.13 060 (СВ) 4000 м  слаб. снег  10/10 300 м 
[Frnb|Ns]
-7.9 -10.7 80 -9  1028.1  0.8  768  320           
09 12.12.13 020 (С) 10 км  слаб. снег  9/8 300 м средняя 
[Frnb|Ac trans]
-5.7 -10 72 -5  1027  -1.1  767  317           
12 12.12.13 040 (СВ) 10 км  {снег}  8/8 600 м 
[Sc]
-5.2 -10 69 -5  1025.6  -1.3  766  316           
15 12.12.13 040 (СВ) 10 км  в посл. час снег  9/6 600 м средняя 
[Sc|Ac trans]
-8 -11.1 78 -10  1026.5  0.8  767  319    -4.8  0.4     
18 12.12.13 060 (СВ) 10 км  {снег}  9/9 600 м 
[St]
-8.4 -11.3 79 -10  1026.4  -0.2  767  320           
21 12.12.13 070 (В) 10 км    ясно 
-10.5 -12.8 83 -10  1026.4  767  323           
00 13.12.13 050 (СВ) 10 км    ясно 
-11.3 -13.5 84 -13  1026.3  -0.1  767  324           
03 13.12.13 060 (СВ) 10 км    ясно 
-11.6 -14 83 -11  1025.6  -0.6  766  324  -11.6         
06 13.12.13 040 (СВ) 10 км    3/3 300 м 
[St]
-11.5 -13.9 82 -11  1025.9  0.3  766  324  -11.9         
09 13.12.13 040 (СВ) 10 км    3/3 1000 м 
[Sc]
-7.3 -12 69 -7  1024.8  -1.1  766  318           
12 13.12.13 050 (СВ) 10 км    ясно 
-4.7 -10.6 63 -4  1023.5  -1.3  765  315           
15 13.12.13 090 (В) 10 км    1/1 1000 м 
[Sc]
-6 -9.8 74 -7  1022.3  -1.2  764  316    -4.2       
18 13.12.13 120 (ЮВ) 10 км    8/3 1000 м верхняя 
[Sc|Ci]
-6 -8.8 81 -6  1021.6  -0.6  763  315           
21 13.12.13 тихо ()   10 км    8/8 300 м 
[St]
-4.5 -7.1 82 -5  1020.7  -0.9  763  313           
00 14.12.13 220 (ЮЗ) 10 км    10/0 средняя 
[Ac und]
-1.7 -4.4 82 -3  1020.1  -0.5  762  310           
03 14.12.13 220 (ЮЗ) 10 км    8/0 средняя 
[Ac trans]
-2.3 -5 82 -2  1019.2  -0.9  762  310  -6.9         
06 14.12.13 220 (ЮЗ) 10 км    10/10 600 м кучево-дожд. 
[Cb cap]
+2.8 -3 66 +2  1019.6  0.5  762  304           
09 14.12.13 190 (Ю) 10 км    10/10 600 м кучево-дожд. 
[Cb cap]
+4 -1.2 69 +2  1018.2  -1.4  761  302           
12 14.12.13 250 (З) 10 км  {ливн. осадки}  10/8 1000 м кучево-дожд., средняя 
[Cb cap|Ac und]
+5.7 -1.1 62 +5  1017.6  -0.5  760  300           
15 14.12.13 250 (З) 4000 м  слаб. дождь{снег}  10/10 300 м 
[Frnb]
+1.4 +0.6 94 +1  1019.7  762  305    +5.7     
18 14.12.13 270 (З) 10 км  {снег, дождь}  10/4 300 м средняя 
[St|Ac und]
+1.5 -0.2 88 1021.5  1.8  763  306           
21 14.12.13 250 (З) 10 км    8/8 300 м 
[St]
+0.4 -1.1 90 1023.3  1.8  765  308           
00 15.12.13 280 (З) 10 км    9/9 600 м 
[Sc]
+0.1 -3.7 76 +1  1025.3  1.9  766  309           
03 15.12.13 тихо ()   10 км    9/9 600 м 
[Sc]
-0.7 -5.4 71 -1  1026.6  1.3  767  310  -0.7    0.5     
06 15.12.13 290 (З) 10 км    1/1 1000 м 
[Sc]
-1.1 -4.7 76 -1  1028.7  2.1  769  312  -2.9         
09 15.12.13 300 (СЗ) 10 км    4/0 средняя 
[Ac trans]
+1.5 -5.6 59 1030.1  1.3  770  309           
12 15.12.13 290 (З) 10 км    9/6 1000 м средняя, верхняя 
[Cu Sc|Ac trans|Cc]
+0.5 -5.4 65 -1  1031.1  1.1  770  311           
15 15.12.13 тихо ()   10 км    9/3 1000 м средняя 
[Sc|Ac trans]
-1.5 -5.9 72 -2  1032.4  1.2  771  313    +1.5       
18 15.12.13 280 (З) 10 км    10/0 средняя 
[Ac und]
-1.4 -6 71 -1  1033.7  1.3  772  314           
21 15.12.13 тихо ()   10 км    10/0 средняя 
[Ac und]
-2.5 -4.9 84 -3  1033.9  0.2  773  315           
00 16.12.13 тихо ()   10 км    8/0 верхняя 
[Cc]
-3.7 -5.3 89 -4  1034.7  0.7  773  316           
03 16.12.13 тихо ()   10 км    10/10 1000 м 
[Sc]
-3.4 -5.5 85 -3  1034.7  773  316  -4         
06 16.12.13 050 (СВ) 10 км    8/3 1000 м средняя, верхняя 
[Sc|Ac und|Cc]
-3 -5.1 85 -3  1035.4  0.7  774  316           
09 16.12.13 040 (СВ) 10 км    8/3 1000 м средняя, верхняя 
[Sc|Ac trans|Ci fib]
+0.3 -4.7 69 +1  1035.9  0.5  774  312           
12 16.12.13 070 (В) 10 км    6/0 средняя, верхняя 
[Ac trans|Ci fib]
+0.9 -9.5 46 +2  1035.9  774  312           
15 16.12.13 040 (СВ) 10 км    5/0 верхняя 
[Ci fib]
-2 -5 80 -1  1036.6  0.6  774  315    +1.6       
18 16.12.13 040 (СВ) 10 км    ясно 
-3.7 -5.8 85 -3  1037.3  0.7  775  317           
21 16.12.13 060 (СВ) 10 км    ясно 
-5.4 -7.1 88 -5  1037.8  0.4  775  320           
00 17.12.13 050 (СВ) 10 км    3/0 средняя, верхняя 
[Ac trans|Ci fib]
-6.5 -8.1 88 -6  1037.5  -0.3  775  321           
03 17.12.13 050 (СВ) 10 км    ясно 
-7.5 -9.2 88 -7  1038.1  0.6  776  322  -7.7         
06 17.12.13 060 (СВ) 1000 м  дымка  9/9 200 м 
[St]
-7.1 -8.1 92 -7  1039.1  776  322  -8.3         
09 17.12.13 060 (СВ) 4000 м  дымка  ясно 
-2.6 -6.6 74 -2  1038.2  -0.8  776  316           
12 17.12.13 070 (В) 10 км    ясно 
-0.5 -9.4 51 1037.6  -0.8  775  314           
15 17.12.13 090 (В) 10 км    ясно 
-2.5 -5.7 79 -2  1037.9  0.3  776  316    +0       
18 17.12.13 тихо ()   10 км    ясно 
-4.5 -6.8 84 -5  1037.6  -0.3  775  318           
21 17.12.13 тихо ()   10 км    ясно 
-5 -6.9 87 -5  1036.7  -0.9  775  319           
00 18.12.13 тихо ()   10 км    ясно 
-6.2 -7.8 88 -6  1035.5  -0.9  774  320           
03 18.12.13 200 (Ю) 2000 м  в посл. час туман  3/3 300 м 
[St]
-5.7 -6.5 94 -5  1034.4  -1.1  773  319  -6.9         
06 18.12.13 200 (Ю) 10 км    3/3 300 м 
[St]
-4 -6.9 80 -4  1034  -0.3  773  317           
09 18.12.13 тихо ()   10 км    ясно 
+3.5 -7.5 44 +4  1032.6  -1.3  772  308           
12 18.12.13 280 (З) 10 км    ясно 
+6.6 -5.6 41 +8  1030.7  -1.9  770  304           
15 18.12.13 тихо ()   10 км    ясно 
-0.2 -3.7 77 -0  1030.5  -0.3  770  311    +6.6       
18 18.12.13 тихо ()   10 км    3/0 верхняя 
[Ci fib]
-2.5 -4.2 88 -3  1029.8  -0.7  769  313           
21 18.12.13 тихо ()   10 км    ясно 
-3.4 -4.8 90 -3  1029.3  -0.5  769  314           
00 19.12.13 180 (Ю) 10 км    ясно 
-3.8 -4.9 92 -3  1028.9  -0.4  769  315           
03 19.12.13 тихо ()   10 км    8/5 1000 м средняя 
[Sc|Ac trans]
-3.6 -4.7 92 -4  1028.9  769  314  -4.1         
06 19.12.13 210 (ЮЗ) 10 км    9/9 600 м 
[Sc]
-1 -3.7 82 1029.1  0.2  769  311           
09 19.12.13 200 (Ю) 10 км    9/8 1000 м средняя 
[Sc|Ac trans]
+3.7 -2 66 +5  1028.8  -0.2  769  306           
12 19.12.13 350 (С) 10 км    5/5 1000 м 
[Sc]
+5.6 -0.4 65 +6  1028.4  -0.4  768  303           
15 19.12.13 030 (СВ) 4000 м  дымка  10/10 300 м 
[St]
+0.7 -0.7 90 +1  1029.7  1.3  769  309    +7       
18 19.12.13 060 (СВ) 4000 м  дымка  10/10 300 м 
[St]
+0.6 -1 89 +1  1030.6  0.9  770  310           
21 19.12.13 тихо ()   4000 м  дымка  10/10 300 м 
[St]
+0.8 -1 88 +1  1031  0.3  770  310           
00 20.12.13 080 (В) 4000 м  дымка  10/10 300 м 
[St]
+0.7 -0.8 90 +1  1031.6  0.7  771  310           
03 20.12.13 090 (В) 2000 м  дымка  10/10 200 м 
[St]
+0.5 -0.8 91 +1  1032.1  0.5  771  310  +0.4         
06 20.12.13 070 (В) 0500 м  туман  н/о 
+0.3 -0.4 95 +1  1033.2  772  311  +0.2         
09 20.12.13 060 (СВ) 2000 м  дымка{туман}  10/10 300 м 
[St]
+1.3 -0.3 89 +2  1033.5  0.3  772  310           
12 20.12.13 090 (В) 10 км  {туман}  9/9 300 м 
[St]
+1.7 -0.8 83 +1  1033.2  -0.3  772  309           
15 20.12.13 100 (В) 4000 м  дымка  10/10 300 м 
[St]
+1.2 -0.4 89 +2  1034.1  0.8  773  310    +1.8       
18 20.12.13 150 (ЮВ) 2000 м  дымка  10/10 200 м 
[St]
+1.1 -0.2 91 +2  1034  0.1  773  310           
21 20.12.13 200 (Ю) 1000 м  дымка  10/10 100 м 
[St]
+0.6 -0.3 94 +1  1034.2  0.3  773  311           
00 21.12.13 110 (В) 0500 м  туман  ?/?  
+0.7 +0 95 +1  1034.4  0.2  773  311           
03 21.12.13 150 (ЮВ) 4000 м  дымка{туман}  10/10 300 м 
[St]
+0.4 -0.6 93 +1  1033.7  -0.7  772  311  +0         
06 21.12.13 070 (В) 10 км  {туман}  9/9 600 м 
[Sc]
+1.3 -0.4 88 +2  1033.6  0.1  772  310           
09 21.12.13 190 (Ю) 10 км    8/8 1000 м 
[Sc]
+7.5 +1.3 65 +8  1032.6  -0.8  772  302           
12 21.12.13 160 (Ю) 10 км    3/3 1000 м 
[Sc]
+10.2 +1.6 55 +10  1030.3  -2.3  770  299           
15 21.12.13 230 (ЮЗ) 10 км    3/3 1000 м 
[Sc]
+7.8 +1.8 66 +9  1030.3  770  301    +10.7       
18 21.12.13 250 (З) 10 км    4/3 1000 м верхняя 
[Sc|Ci fib]
+6.3 +1.2 70 +5  1030.5  0.1  770  303           
21 21.12.13 220 (ЮЗ) 10 км    10/8 600 м средняя 
[Sc|Ac und]
+6.8 +1.6 69 +6  1030.6  0.1  770  303           
00 22.12.13 270 (З) 10 км  {дождь}  10/6 600 м средняя 
[Sc|Ac und]
+3.6 +1 83 +2  1032.6  772  307           
03 22.12.13 270 (З) 10 км    4/4 300 м 
[St]
+2.1 -0.3 84 +1  1034.2  1.5  773  309  +2.1    0.0     
06 22.12.13 260 (З) 10 км    10/10 300 м 
[St]
+2.6 -0.1 82 +2  1035.7  1.5  774  309  +2         
09 22.12.13 270 (З) 10 км    9/9 600 м 
[Sc]
+4.6 -0.4 70 +3  1036  0.3  774  307           
12 22.12.13 240 (ЮЗ) 10 км    3/3 1000 м 
[Sc]
+5.4 -0.2 67 +5  1035.4  -0.6  774  306           
15 22.12.13 240 (ЮЗ) 10 км    ясно 
+2.5 -0.4 81 +3  1035.6  0.2  774  309    +5.8       
18 22.12.13 тихо ()   4000 м  дымка  ясно 
+0.8 -0.9 88 +1  1035.6  0.1  774  311           
21 22.12.13 тихо ()   4000 м  дымка  ясно 
-0.9 -1.8 94 -1  1035.5  -0.1  774  313           
00 23.12.13 тихо ()   2000 м  дымка  3/3 300 м 
[St]
-1.4 -2.1 95 -1  1034.3  -1.2  773  313           
03 23.12.13 150 (ЮВ) 2000 м  дымка  ясно 
-0.4 -1 96 1032.9  -1.4  772  312  -2.4         
06 23.12.13 тихо ()   2000 м  в посл. час туман  9/9 300 м 
[St]
-0.6 -1.2 96 -1  1033  0.1  772  312           
09 23.12.13 090 (В) 10 км    ясно 
+5.4 +1.1 74 +6  1032  -0.9  771  305           
12 23.12.13 080 (В) 10 км    ясно 
+6.8 +1.2 67 +8  1030.6  -1.3  778  306           
15 23.12.13 тихо ()   10 км    ясно 
+2.2 +0.2 87 +2  1030.9  0.2  770  308    +7.3       
18 23.12.13 тихо ()   10 км    3/0 средняя 
[Ac trans]
-0.2 -1 94 -0  1031  0.1  770  311           
21 23.12.13 210 (ЮЗ) 10 км    9/9 600 м 
[Sc]
+1.9 +1.2 95 +3  1030.8  -0.2  770  308           
00 24.12.13 тихо ()   10 км    9/9 600 м 
[Sc]
+3.2 +1.4 88 +3  1031  0.2  770  307           
03 24.12.13 200 (Ю) 10 км    6/6 1000 м 
[Sc]
+3 +1.1 87 +4  1030.9  0.1  770  307  -0.4         
06 24.12.13 210 (ЮЗ) 10 км    8/5 1000 м средняя 
[Sc|Ac trans]
+3.6 +1.8 88 +4  1031.9  771  306           
09 24.12.13 150 (ЮВ) 10 км    5/3 1000 м верхняя 
[Sc|Ci fib]
+9.5 +2.8 63 +11  1032  0.2  771  300           
12 24.12.13 250 (З) 10 км    ясно 
+10.8 +1.3 52 +12  1031.6  -0.4  771  299           
15 24.12.13 тихо ()   10 км    ясно 
+5.1 +1.9 80 +5  1032.6  772  305    +10.9       
18 24.12.13 тихо ()   10 км    3/3 600 м 
[Sc]
+2.6 -0 83 +3  1033  0.3  772  308           
21 24.12.13 тихо ()   4000 м  дымка  ясно 
+1.6 +0.3 91 +2  1033.4  0.5  772  309           
00 25.12.13 060 (СВ) 4000 м  дымка  ясно 
+0.7 -0.4 92 +1  1033.5  772  310           
03 25.12.13 060 (СВ) 4000 м  дымка  ясно 
-0.7 -1.5 94 1032.6  -0.9  772  312  -0.7         
06 25.12.13 070 (В) 10 км    ясно 
-0.1 -1.8 88 +1  1032.6  0.1  772  311  -1.2         
09 25.12.13 080 (В) 10 км    ясно 
+6.5 -1.7 56 +6  1031.5  -1  771  304           
12 25.12.13 040 (СВ) 10 км    ясно 
+8.6 +0.2 56 +9  1029.8  -1.7  770  301           
15 25.12.13 060 (СВ) 10 км    ясно 
+4 -0.4 73 +5  1030.1  0.2  770  306    +9.2       
18 25.12.13 070 (В) 4000 м  дымка  ясно 
+2.2 +0.2 87 +3  1029  -1  769  307           
21 25.12.13 060 (СВ) 4000 м  дымка  ясно 
+1.1 -0.5 89 1027.6  -1.4  768  308           
00 26.12.13 070 (В) 4000 м  дымка  ясно 
+0.4 -1.1 90 +1  1026.7  -0.9  767  309           
03 26.12.13 070 (В) 4000 м  дымка  ясно 
-0.8 -2 91 1025.5  -1.3  766  310  -0.9         
06 26.12.13 тихо ()   4000 м  дымка  10/0 верхняя 
[Ci]
-0.6 -1.8 91 -1  1025.6  0.1  766  310  -1.7         
09 26.12.13 070 (В) 10 км    10/0 верхняя 
[Ci]
+3.8 -2 66 +5  1024.4  -1.1  765  304           
12 26.12.13 050 (СВ) 10 км    10/0 средняя, верхняя 
[As trans|Cs]
+5.2 -0.6 66 +5  1023  -1.4  764  302           
15 26.12.13 070 (В) 10 км    6/0 верхняя 
[Cs]
+2.7 -0.5 79 +3  1023  764  305    +6.2       
18 26.12.13 070 (В) 10 км    ясно 
+1.7 -1.6 79 +2  1022.9  0.1  764  306           
21 26.12.13 060 (СВ) н/о    н/о 
+0.8 -1.9 82 +1  1022.9  764  307           
00 27.12.13 060 (СВ) 10 км    ясно 
+0.7 -2 82 +1  1023.7  0.7  765  308           
03 27.12.13 060 (СВ) 10 км    4/0 верхняя 
[Cs]
-0.3 -2.9 82 1024  0.3  765  309  -0.3         
06 27.12.13 050 (СВ) 10 км    10/3 1000 м средняя, верхняя 
[Sc|Ac trans|Ci fib]
+0.1 -3.2 79 +1  1024.9  0.9  766  309  -0.5         
09 27.12.13 030 (СВ) 10 км    10/3 1000 м средняя, верхняя 
[Sc|Ac trans|Cs]
+2.5 -1.9 73 +3  1024.9  0.1  766  306           
12 27.12.13 060 (СВ) 10 км    10/0 средняя, верхняя 
[Ac trans|Cs]
+4.1 -0.2 74 +4  1024.7  -0.2  766  304           
15 27.12.13 060 (СВ) 10 км    8/4 1000 м средняя, верхняя 
[Sc|Ac trans|Ci fib]
+2.6 -0.4 81 +3  1025.3  0.6  766  306    +5.7       
18 27.12.13 070 (В) 10 км    ясно 
+0.9 -0.7 89 +2  1025.7  0.4  766  308           
21 27.12.13 060 (СВ) 10 км    ясно 
+0.2 -1.2 90 +1  1025.4  -0.3  766  309           
00 28.12.13 тихо ()   2700 м    ясно 
-0.6 -1.8 91 -1  1025.5  0.2  766  310           
03 28.12.13 070 (В) 4000 м  дымка  5/0 верхняя 
[Ci fib]
-1.7 -2.5 94 -1  1026.1  0.5  767  311  -2.3         
06 28.12.13 тихо ()   10 км    1/0 верхняя 
[Ci fib]
-0.2 -2.5 84 -0  1026.3  0.3  767  310           
09 28.12.13 050 (СВ) 10 км    ясно 
+5.3 -1.5 61 +6  1026  -0.3  767  303           
12 28.12.13 030 (СВ) 10 км    8/0 верхняя 
[Ci]
+8.2 +0.1 57 +9  1025.2  -0.7  766  300           
15 28.12.13 030 (СВ) 10 км    ясно 
+2.5 +0.5 87 +2  1026.1  0.8  767  306    +8.5       
18 28.12.13 050 (СВ) 0200 м  туман  ?/?  
+0.2 -0.4 96 -1  1025.9  -0.2  767  309           
21 28.12.13 040 (СВ) 0200 м  туман  ?/?  
+0.4 -0 97 +1  1025.8  -0.2  766  308           
00 29.12.13 050 (СВ) 0200 м  туман  ?/?  
-0.1 -0.5 97 -1  1025.8  766  309           
03 29.12.13 090 (В) 0500 м  снежные зёрна{туман}  ?/?  
-0.6 -1 97 -1  1025.1  766  309  -0.7         
06 29.12.13 090 (В) 1000 м  дымка{снег, туман}  10/10 200 м 
[St]
-0.6 -1.1 96 1025.6  0.4  766  310  -0.7         
09 29.12.13 050 (СВ) 1000 м  дымка  10/10 200 м 
[St]
-0.3 -0.9 96 -1  1025.4  -0.2  766  309           
12 29.12.13 070 (В) 2000 м  дымка  10/10 200 м 
[St]
-0 -1 93 -1  1024.6  -0.7  766  309           
15 29.12.13 060 (СВ) 2000 м  дымка  10/10 200 м 
[St]
-0.1 -1.2 92 +1  1025.1  0.4  766  309    +0  0.0     
18 29.12.13 070 (В) 2000 м  дымка  10/10 200 м 
[St]
-0.8 -1.7 94 -2  1025.3  0.1  766  310           
21 29.12.13 110 (В) 1000 м  дымка  10/10 200 м 
[St]
+0.1 -0.6 95 -1  1024.3  -0.9  765  308           
00 30.12.13 070 (В) 1000 м  дымка  10/10 200 м 
[St]
+0.2 -0.6 94 -1  1024.2  -0.2  765  308           
03 30.12.13 080 (В) 0500 м  туман  ?/?  
-0.8 -1.4 96 -2  1023.9  -0.3  765  309  -0.9         
06 30.12.13 090 (В) 1000 м  в посл. час туман  10/10 50 м 
[St]
+0.1 -0.4 96 -1  1024.5  0.5  765  308  -1.2         
09 30.12.13 090 (В) 1000 м  дымка  10/10 100 м 
[St]
-0 -1.1 92 -1  1024  -0.4  765  308           
12 30.12.13 090 (В) 4000 м  дымка  10/10 300 м 
[St]
+0.8 -0.8 89 1023.2  -0.9  764  307           
15 30.12.13 120 (ЮВ) 4000 м  дымка  10/10 200 м 
[St]
+1.2 -0.3 90 +2  1023.9  0.8  765  307    +1.2       
18 30.12.13 200 (Ю) 1000 м  дымка  10/10 200 м 
[St]
+1.2 -0.3 90 +2  1023.9  0.2  765  307           
21 30.12.13 тихо ()   1000 м  слаб. морось  10/10 200 м 
[St]
+1.1 -0.1 92 +1  1024  765  307           
00 31.12.13 080 (В) 2000 м  дымка{морось}  10/10 300 м 
[St]
+1.6 +0.2 91 +2  1024.6  0.6  766  307           
03 31.12.13 070 (В) 4000 м  дымка  10/10 300 м 
[St]
+1.2 -0.2 90 +2  1025.1  0.4  766  307  +0.3    0.0     
06 31.12.13 090 (В) 2000 м  дымка  10/10 100 м 
[St]
+1 -0.4 90 +2  1026.4  1.3  767  308           
09 31.12.13 140 (ЮВ) 10 км  дымка  10/10 100 м 
[St]
+1.8 -0.2 87 +3  1026.7  0.3  767  307           
12 31.12.13 090 (В) 10 км    9/9 600 м 
[St]
+2.8 -0.6 78 +2  1026.3  -0.4  767  306           
15 31.12.13 060 (СВ) 10 км    10/10 600 м 
[St]
+2.6 +0.1 84 +3  1027.5  1.2  768  306    +2.8       
18 31.12.13 050 (СВ) 10 км    10/10 600 м 
[Sc]
+2.6 +0.8 88 +3  1028.3  0.8  768  307           
21 31.12.13 050 (СВ) 10 км    10/10 600 м 
[St]
+2.7 +0.6 86 +2  1028.6  0.3  769  307           
03 01.01.14 070 (В) 10 км    10/10 300 м 
[St]
+2.4 +0.9 90 +2  1028.9  0.1  769  307  +2.4         
06 01.01.14 060 (СВ) 10 км    10/10 300 м 
[St]
+2.5 +1 90 +2  1029.8  0.1  770  307  +2.3         
09 01.01.14 050 (СВ) 10 км    9/9 600 м 
[Sc]
+5.7 +1.7 75 +5  1029.1  -0.7  769  303           
12 01.01.14 060 (СВ) 10 км    9/9 600 м 
[Sc]
+5.2 +0.8 73 +4  1028.2  -0.9  768  304           
15 01.01.14 070 (В) 10 км    3/3 1000 м 
[Sc]
+3.9 -0.3 74 +3  1028.4  0.2  768  305    +6.5       
18 01.01.14 060 (СВ) 10 км    ясно 
+1.4 -0.9 85 +1  1028  -0.4  768  308           
21 01.01.14 060 (СВ) 10 км    ясно 
+0.7 -1.5 85 +1  1027.9  0.1  768  309           
00 02.01.14 070 (В) 10 км    ясно 
-0.4 -2.2 88 1027.6  -0.4  768  310           
03 02.01.14 060 (СВ) 10 км    ясно 
-1.1 -2.6 90 -1  1026.7  -0.9  767  311  -1.1         
06 02.01.14 080 (В) 10 км    3/0 верхняя 
[Ci fib]
-0.6 -2.2 89 1027.5  0.8  768  310  -1.8         
09 02.01.14 090 (В) 10 км    3/0 верхняя 
[Ci fib]
+3.1 -2.5 67 +4  1026.7  -0.7  767  306           
Время (UTC), дата Ветер
(°,м/с) 
Видим.   Явления Облачность Т
(°С)
Тd
(°С)
f(%) Тe
(°С)
Pmin
(гПа)
dP
(гПа)
Po
(мм)
O2
(г/м3)
Тmin Tmax R s Состояние
почвы